Tracking 25405 objects as of 27-Jan-2022
HD Live streaming from Space Station
objects crossing your sky now

OBJECT D

Track OBJECT D now!
10-day predictions


NORAD ID: 43665
Int'l Code: 2018-083D
Perigee: 506.1 km
Apogee: 526.6 km
Inclination: 97.4 °
Period: 94.8 minutes
Semi major axis: 6887 km
RCS: Unknown
Launch date: October 29, 2018
Source: People's Republic of China (PRC)
Launch site: Jiuquan Satellite Launch Center, China (JSC)
aabbcc
Your satellite tracking list
Your tracking list is empty




NASA's NSSDC Master Catalog

Two Line Element Set (TLE):
1 43665U 18083D   22026.75650387  .00002262  00000-0  11140-3 0  9999
2 43665  97.4262  53.4147 0014892 107.0725  13.0337 15.18897923179834
Source of the keplerian elements: AFSPC